Newberry, SC

2:19 AM EDT on April 21, 2018 (GMT -0400)
Newberry

Weather History for KEOE - September, 2013

Change the Weather History Date:

Saturday, September 21, 2013

  Actual Average (KFDW) Record (KFDW)
Temperature  
Mean Temperature 73 °F -  
Max Temperature 78 °F 82 °F 96 °F (2010)
Min Temperature 68 °F 62 °F 59 °F (2014)
Cooling Degree Days 8    
Growing Degree Days 23 (Base 50)    
Moisture  
Dew Point 70 °F    
Average Humidity 92    
Maximum Humidity 100    
Minimum Humidity 74    
Precipitation  
Precipitation 0.29 in - - ()
Sea Level Pressure  
Sea Level Pressure 29.86 in    
Wind  
Wind Speed 5 mph (SSW)    
Max Wind Speed 14 mph    
Max Gust Speed 21 mph    
Visibility 10 miles    
Events Rain    
Averages and records for this station are not official NWS values.
T = Trace of Precipitation, MM = Missing Value Source: NWS Daily Summary

Daily Weather History Graph

Daily Weather History Graph

Search for Another Location

Airport or City:

Astronomy

Sep. 21, 2013 Rise Set
Actual Time 7:14 AM EDT 7:24 PM EDT
Civil Twilight 6:49 AM EDT 7:49 PM EDT
Nautical Twilight 6:19 AM EDT 8:18 PM EDT
Astronomical Twilight 5:50 AM EDT 8:48 PM EDT
Moon 8:43 PM EDT 9:23 AM EDT
Length of Visible Light 13h 00m
Length of Day
12h 10m
Waning Gibbous, 94% of the Moon is Illuminated
Sep 21
Waning Gibbous
Sep 26
Last Quarter
Oct 4
New
Oct 11
First Quarter
Oct 18
Full

Hourly Weather History & Observations

Time (EDT) Temp. Dew Point Humidity Pressure Visibility Wind Dir Wind Speed Gust Speed Precip Events Conditions
12:15 AM 71.6 °F 68.0 °F 88% 29.98 in 10.0 mi South 4.6 mph - N/A   Clear
12:35 AM 71.6 °F 68.0 °F 88% 29.98 in 10.0 mi South 3.5 mph - N/A   Clear
12:55 AM 69.8 °F 68.0 °F 94% 29.98 in 10.0 mi Calm Calm - N/A   Scattered Clouds
1:15 AM 69.8 °F 68.0 °F 94% 29.98 in 10.0 mi South 3.5 mph - N/A   Scattered Clouds
1:35 AM 69.8 °F 68.0 °F 94% 29.98 in 10.0 mi South 4.6 mph - N/A   Clear
1:55 AM 69.8 °F 68.0 °F 94% 29.98 in 10.0 mi South 4.6 mph - N/A   Clear
2:15 AM 69.8 °F 68.0 °F 94% 29.97 in 10.0 mi South 4.6 mph - N/A   Unknown
2:35 AM 69.8 °F 68.0 °F 94% 29.97 in 10.0 mi South 3.5 mph - N/A   Unknown
2:55 AM 69.8 °F 68.0 °F 94% 29.96 in 10.0 mi South 3.5 mph - N/A   Unknown
3:15 AM 69.8 °F 68.0 °F 94% 29.96 in 10.0 mi South 3.5 mph - N/A   Unknown
3:35 AM 68.0 °F 68.0 °F 100% 29.95 in 10.0 mi South 3.5 mph - N/A   Unknown
3:55 AM 68.0 °F 68.0 °F 100% 29.94 in 10.0 mi South 3.5 mph - N/A   Unknown
4:15 AM 68.0 °F 68.0 °F 100% 29.94 in 10.0 mi Calm Calm - N/A   Unknown
4:35 AM 68.0 °F 68.0 °F 100% 29.93 in 10.0 mi SSW 3.5 mph - N/A   Clear
4:55 AM 68.0 °F 68.0 °F 100% 29.92 in 10.0 mi SSW 3.5 mph - N/A   Clear
5:15 AM 68.0 °F 68.0 °F 100% 29.91 in 7.0 mi South 3.5 mph - N/A   Clear
5:35 AM 68.0 °F 68.0 °F 100% 29.91 in 10.0 mi South 3.5 mph - N/A   Unknown
5:55 AM 68.0 °F 68.0 °F 100% 29.91 in 10.0 mi South 3.5 mph - N/A   Unknown
6:15 AM 68.0 °F 68.0 °F 100% 29.91 in 10.0 mi South 3.5 mph - N/A   Unknown
6:35 AM 68.0 °F 68.0 °F 100% 29.91 in 10.0 mi South 3.5 mph - N/A   Unknown
6:55 AM 68.0 °F 68.0 °F 100% 29.91 in 10.0 mi South 4.6 mph - N/A   Unknown
7:15 AM 68.0 °F 68.0 °F 100% 29.92 in 10.0 mi SSW 4.6 mph - N/A   Unknown
7:35 AM 68.0 °F 68.0 °F 100% 29.93 in 7.0 mi SSW 4.6 mph - N/A   Unknown
7:55 AM 68.0 °F 68.0 °F 100% 29.93 in 7.0 mi SSW 4.6 mph - N/A   Unknown
8:15 AM 68.0 °F 68.0 °F 100% 29.94 in 7.0 mi South 4.6 mph - N/A   Clear
8:35 AM 69.8 °F 69.8 °F 100% 29.93 in 10.0 mi SSW 6.9 mph - N/A   Clear
8:55 AM 69.8 °F 69.8 °F 100% 29.93 in 10.0 mi SSW 6.9 mph - N/A   Unknown
9:15 AM 69.8 °F 69.8 °F 100% 29.93 in 10.0 mi SSW 4.6 mph - N/A   Unknown
9:35 AM 71.6 °F 69.8 °F 94% 29.92 in 10.0 mi SSW 3.5 mph - N/A   Unknown
9:55 AM 71.6 °F 69.8 °F 94% 29.92 in 10.0 mi SSW 6.9 mph - N/A   Clear
10:15 AM 73.4 °F 69.8 °F 88% 29.92 in 10.0 mi SSW 3.5 mph - N/A   Clear
10:35 AM 73.4 °F 69.8 °F 88% 29.92 in 10.0 mi SSW 5.8 mph - N/A   Clear
10:55 AM 75.2 °F 69.8 °F 83% 29.91 in 10.0 mi SSW 5.8 mph - N/A   Clear
11:15 AM 77.0 °F 68.0 °F 74% 29.91 in 10.0 mi SSW 8.1 mph - N/A   Clear
11:35 AM 77.0 °F 69.8 °F 78% 29.90 in 10.0 mi SSW 5.8 mph - N/A   Clear
11:55 AM 77.0 °F 69.8 °F 78% 29.90 in 10.0 mi SSW 4.6 mph - N/A   Clear
12:15 PM 77.0 °F 69.8 °F 78% 29.89 in 10.0 mi South 4.6 mph - N/A Rain Light Rain
12:35 PM 77.0 °F 69.8 °F 78% 29.89 in 10.0 mi SSW 5.8 mph - N/A   Light Drizzle
12:55 PM 77.0 °F 69.8 °F 78% 29.88 in 10.0 mi South 4.6 mph - N/A   Clear
1:15 PM 77.0 °F 69.8 °F 78% 29.87 in 10.0 mi SSW 5.8 mph - N/A   Clear
1:35 PM 78.8 °F 69.8 °F 74% 29.86 in 10.0 mi South 8.1 mph - N/A   Clear
1:55 PM 77.0 °F 69.8 °F 78% 29.85 in 10.0 mi South 5.8 mph - N/A   Clear
2:15 PM 78.8 °F 69.8 °F 74% 29.84 in 10.0 mi South 3.5 mph - N/A Rain Light Rain
2:35 PM 77.0 °F 69.8 °F 78% 29.83 in 10.0 mi South 4.6 mph - N/A   Clear
2:55 PM 77.0 °F 69.8 °F 78% 29.82 in 10.0 mi South 5.8 mph - N/A   Light Drizzle
3:15 PM 77.0 °F 69.8 °F 78% 29.81 in 10.0 mi South 4.6 mph - N/A   Light Drizzle
3:35 PM 77.0 °F 71.6 °F 83% 29.81 in 10.0 mi South 5.8 mph - N/A   Light Drizzle
3:55 PM 77.0 °F 71.6 °F 83% 29.80 in 10.0 mi South 4.6 mph - N/A   Light Drizzle
4:15 PM 77.0 °F 71.6 °F 83% 29.79 in 10.0 mi South 3.5 mph - N/A   Scattered Clouds
4:35 PM 77.0 °F 71.6 °F 83% 29.78 in 10.0 mi South 3.5 mph - N/A   Light Drizzle
4:55 PM 77.0 °F 71.6 °F 83% 29.77 in 10.0 mi South 3.5 mph - N/A   Light Drizzle
5:15 PM 77.0 °F 71.6 °F 83% 29.76 in 10.0 mi SSE 4.6 mph - N/A Rain Rain
5:35 PM 75.2 °F 73.4 °F 94% 29.76 in 10.0 mi SSE 4.6 mph - N/A Rain Light Rain
5:55 PM 75.2 °F 71.6 °F 89% 29.75 in 10.0 mi SSE 5.8 mph - N/A   Scattered Clouds
6:15 PM 75.2 °F 71.6 °F 89% 29.74 in 10.0 mi SSE 5.8 mph - N/A   Light Drizzle
6:35 PM 73.4 °F 71.6 °F 94% 29.74 in 10.0 mi SSE 5.8 mph - N/A   Drizzle
6:55 PM 73.4 °F 71.6 °F 94% 29.72 in 10.0 mi SSE 8.1 mph - N/A   Drizzle
7:15 PM 73.4 °F 71.6 °F 94% 29.72 in 10.0 mi SSE 6.9 mph - N/A Rain Light Rain
7:35 PM 71.6 °F 71.6 °F 100% 29.71 in 10.0 mi SSE 8.1 mph - 0.02 in Rain Rain
7:55 PM 71.6 °F 71.6 °F 100% 29.71 in 5.0 mi South 6.9 mph - 0.06 in Rain Rain
8:15 PM 71.6 °F 71.6 °F 100% 29.72 in 4.0 mi SSW 6.9 mph - 0.06 in Rain Heavy Rain
8:35 PM 71.6 °F 71.6 °F 100% 29.72 in 5.0 mi SW 8.1 mph - 0.23 in Rain Light Rain
8:55 PM 71.6 °F 71.6 °F 100% 29.72 in 10.0 mi SSW 9.2 mph - 0.23 in   Unknown
9:15 PM 71.6 °F 71.6 °F 100% 29.72 in 10.0 mi SSW 12.7 mph 18.4 mph N/A   Unknown
9:35 PM 71.6 °F 71.6 °F 100% 29.74 in 10.0 mi SW 13.8 mph 19.6 mph N/A   Overcast
9:55 PM 71.6 °F 71.6 °F 100% 29.73 in 10.0 mi SW 11.5 mph 20.7 mph N/A   Overcast
10:15 PM 71.6 °F 71.6 °F 100% 29.74 in 10.0 mi WSW 10.4 mph 16.1 mph N/A   Mostly Cloudy
10:35 PM 71.6 °F 71.6 °F 100% 29.75 in 10.0 mi WSW 12.7 mph 17.3 mph N/A   Mostly Cloudy
10:55 PM 69.8 °F 69.8 °F 100% 29.75 in 10.0 mi WNW 5.8 mph - N/A Rain Light Rain
11:15 PM 68.0 °F 68.0 °F 100% 29.76 in 10.0 mi WNW 4.6 mph - N/A   Overcast
11:35 PM 68.0 °F 68.0 °F 100% 29.76 in 10.0 mi WNW 5.8 mph - N/A   Overcast
11:55 PM 68.0 °F 68.0 °F 100% 29.76 in 10.0 mi WNW 3.5 mph - N/A   Overcast